Weather History for Weslaco, TX

Change the Weather History Date:

Friday, February 17, 2012

  Actual Average (KMFE) Record (KMFE)
Temperature  
Mean Temperature 70 °F 65 °F  
Max Temperature 73 °F 76 °F 91 °F (1982)
Min Temperature 66 °F 55 °F 34 °F (1917)
Degree Days  
Heating Degree Days 0 3  
Month to date heating degree days 76  
Since 1 July heating degree days 503  
Cooling Degree Days 4 4  
Month to date cooling degree days 50  
Year to date cooling degree days 112  
Growing Degree Days 20 (Base 50)    
Moisture  
Dew Point 66 °F    
Average Humidity 89    
Maximum Humidity 94    
Minimum Humidity 83    
Precipitation  
Precipitation 0.12 in 0.04 in 2.18 in (1957)
Month to date precipitation 0.74  
Year to date precipitation 1.79  
Sea Level Pressure  
Sea Level Pressure 29.90 in    
Wind  
Wind Speed 8 mph (ESE)    
Max Wind Speed 22 mph    
Max Gust Speed 30 mph    
Visibility 6 miles    
Events Rain , Thunderstorm    
T = Trace of Precipitation, MM = Missing Value Source: NWS Daily Summary

Daily Weather History Graph

Daily Weather History Graph

Search for Another Location

Airport:

Trip Planner

Search our weather history database for the weather conditions in past years. The results will help you decide how hot, cold, wet, or windy it might be!

Date:

Astronomy

Feb. 17, 2012 Rise Set
Actual Time 7:06 AM CST 6:25 PM CST
Civil Twilight 6:42 AM CST 6:49 PM CST
Nautical Twilight 6:15 AM CST 7:16 PM CST
Astronomical Twilight 5:48 AM CST 7:43 PM CST
Moon 3:41 AM CST (2/17) 2:36 PM CST (2/17)
Length of Visible Light 12h 06m
Length of Day
11h 19m
Waning Crescent, 19% of the Moon is Illuminated
Feb 17
Waning Crescent
Feb 21
New
Feb 29
First Quarter
Mar 8
Full
Mar 14
Last Quarter

Hourly Weather History & Observations

Time (CST) Temp. Dew Point Humidity Pressure Visibility Wind Dir Wind Speed Gust Speed Precip Events Conditions
12:15 AM 68.0 °F 64.4 °F 88% 29.95 in 5.0 mi SSE 18.4 mph 26.5 mph 0.05 in Rain , Thunderstorm Rain
12:35 AM 68.0 °F 64.4 °F 88% 29.95 in 7.0 mi SE 21.9 mph 29.9 mph 0.08 in Rain , Thunderstorm Light Thunderstorms and Rain
12:55 AM 68.0 °F 62.6 °F 83% 29.91 in 10.0 mi ESE 12.7 mph 25.3 mph 0.10 in Rain , Thunderstorm Light Thunderstorms and Rain
1:15 AM 66.2 °F 60.8 °F 83% 29.91 in 10.0 mi SE 6.9 mph - N/A   Scattered Clouds
1:35 AM 66.2 °F 60.8 °F 83% 29.91 in 10.0 mi Calm Calm - N/A   Clear
1:55 AM 66.2 °F 62.6 °F 88% 29.93 in 10.0 mi SW 4.6 mph - N/A   Clear
2:15 AM 68.0 °F 62.6 °F 83% 29.92 in 10.0 mi SSE 5.8 mph - N/A   Clear
2:35 AM 68.0 °F 62.6 °F 83% 29.91 in 10.0 mi SE 8.1 mph 17.3 mph N/A   Clear
2:55 AM 68.0 °F 62.6 °F 83% 29.92 in 10.0 mi SE 6.9 mph - N/A   Clear
3:15 AM 68.0 °F 62.6 °F 83% 29.93 in 10.0 mi ESE 4.6 mph - N/A   Clear
3:35 AM 68.0 °F 62.6 °F 83% 29.93 in 10.0 mi ESE 3.5 mph - N/A   Clear
3:55 AM 68.0 °F 62.6 °F 83% 29.93 in 10.0 mi SE 6.9 mph - N/A   Mostly Cloudy
4:15 AM 68.0 °F 62.6 °F 83% 29.93 in 10.0 mi SE 6.9 mph - N/A   Overcast
4:35 AM 68.0 °F 62.6 °F 83% 29.93 in 10.0 mi ESE 5.8 mph - N/A   Overcast
4:55 AM 68.0 °F 62.6 °F 83% 29.93 in 10.0 mi ESE 4.6 mph - N/A   Overcast
5:15 AM 68.0 °F 62.6 °F 83% 29.93 in 10.0 mi ESE 3.5 mph - N/A   Overcast
5:35 AM 68.0 °F 62.6 °F 83% 29.92 in 10.0 mi East 4.6 mph - N/A   Overcast
6:15 AM 68.0 °F 64.4 °F 88% 29.93 in 10.0 mi East 4.6 mph - N/A   Overcast
6:35 AM 68.0 °F 64.4 °F 88% 29.93 in 10.0 mi ESE 5.8 mph - N/A   Overcast
6:55 AM 68.0 °F 64.4 °F 88% 29.94 in 10.0 mi ESE 5.8 mph - N/A   Overcast
7:15 AM 68.0 °F 64.4 °F 88% 29.95 in 7.0 mi East 4.6 mph - N/A   Overcast
7:35 AM 68.0 °F 64.4 °F 88% 29.95 in 7.0 mi East 4.6 mph - N/A   Overcast
7:55 AM 68.0 °F 64.4 °F 88% 29.95 in 7.0 mi East 4.6 mph - N/A   Overcast
8:15 AM 68.0 °F 66.2 °F 94% 29.96 in 5.0 mi ENE 4.6 mph - N/A   Overcast
8:35 AM 68.0 °F 64.4 °F 88% 29.96 in 7.0 mi NE 3.5 mph - N/A   Light Drizzle
8:55 AM 68.0 °F 64.4 °F 88% 29.96 in 4.0 mi East 3.5 mph - N/A   Drizzle
9:15 AM 68.0 °F 66.2 °F 94% 29.96 in 4.0 mi East 6.9 mph - N/A Rain Light Rain
9:35 AM 69.8 °F 66.2 °F 88% 29.96 in 3.0 mi ENE 5.8 mph - 0.01 in   Light Drizzle
9:55 AM 69.8 °F 66.2 °F 88% 29.97 in 4.0 mi ENE 5.8 mph - 0.01 in   Overcast
10:15 AM 69.8 °F 66.2 °F 88% 29.96 in 4.0 mi East 8.1 mph - N/A   Overcast
10:35 AM 69.8 °F 68.0 °F 94% 29.96 in 4.0 mi East 8.1 mph - N/A   Overcast
10:55 AM 69.8 °F 68.0 °F 94% 29.97 in 2.0 mi East 6.9 mph - N/A   Overcast
11:15 AM 69.8 °F 66.2 °F 88% 29.96 in 1.2 mi East 8.1 mph - N/A   Overcast
11:35 AM 69.8 °F 68.0 °F 94% 29.96 in 2.5 mi East 6.9 mph - N/A   Overcast
11:55 AM 69.8 °F 68.0 °F 94% 29.95 in 4.0 mi East 9.2 mph - N/A   Overcast
12:15 PM 69.8 °F 68.0 °F 94% 29.94 in 7.0 mi East 6.9 mph - N/A Rain Rain
12:35 PM 69.8 °F 66.2 °F 88% 29.93 in 7.0 mi East 9.2 mph - N/A   Overcast
12:55 PM 69.8 °F 68.0 °F 94% 29.92 in 10.0 mi East 10.4 mph - N/A   Overcast
1:15 PM 69.8 °F 68.0 °F 94% 29.91 in 5.0 mi East 10.4 mph - N/A   Overcast
1:35 PM 69.8 °F 68.0 °F 94% 29.89 in 5.0 mi East 9.2 mph - N/A   Overcast
1:55 PM 69.8 °F 68.0 °F 94% 29.88 in 5.0 mi East 5.8 mph - N/A   Overcast
2:15 PM 71.6 °F 68.0 °F 88% 29.86 in 5.0 mi East 4.6 mph - N/A   Overcast
2:35 PM 71.6 °F 68.0 °F 88% 29.86 in 5.0 mi East 4.6 mph - N/A   Overcast
2:55 PM 71.6 °F 69.8 °F 94% 29.85 in 5.0 mi East 8.1 mph - N/A   Overcast
3:15 PM 71.6 °F 69.8 °F 94% 29.85 in 4.0 mi NE 4.6 mph - N/A   Overcast
3:35 PM 71.6 °F 69.8 °F 94% 29.84 in 4.0 mi ENE 3.5 mph - N/A   Overcast
3:55 PM 71.6 °F 69.8 °F 94% 29.84 in 4.0 mi Calm Calm - N/A   Overcast
4:15 PM 71.6 °F 69.8 °F 94% 29.84 in 2.5 mi Calm Calm - 0.01 in Rain Heavy Rain
4:35 PM 73.4 °F 69.8 °F 88% 29.83 in 4.0 mi Calm Calm - 0.01 in   Overcast
4:55 PM 73.4 °F 69.8 °F 88% 29.83 in 4.0 mi SE 8.1 mph - 0.01 in   Overcast
5:15 PM 73.4 °F 69.8 °F 88% 29.83 in 4.0 mi SE 8.1 mph - N/A   Overcast
5:35 PM 73.4 °F 69.8 °F 88% 29.83 in 3.0 mi SE 6.9 mph - N/A   Overcast
5:55 PM 71.6 °F 69.8 °F 94% 29.82 in 3.0 mi SE 8.1 mph - N/A   Overcast
6:15 PM 71.6 °F 69.8 °F 94% 29.82 in 4.0 mi SE 6.9 mph - N/A   Overcast
6:35 PM 71.6 °F 69.8 °F 94% 29.83 in 4.0 mi SE 9.2 mph - N/A   Overcast
6:55 PM 71.6 °F 69.8 °F 94% 29.83 in 4.0 mi SE 8.1 mph - N/A Rain Light Rain
7:15 PM 71.6 °F 69.8 °F 94% 29.84 in 4.0 mi SE 6.9 mph - N/A   Overcast
7:35 PM 71.6 °F 69.8 °F 94% 29.84 in 4.0 mi SE 5.8 mph - N/A Rain Light Rain
7:55 PM 71.6 °F 69.8 °F 94% 29.84 in 5.0 mi SSE 8.1 mph - N/A Rain Light Rain
8:15 PM 71.6 °F 69.8 °F 94% 29.85 in 5.0 mi SE 8.1 mph - N/A   Overcast
8:35 PM 71.6 °F 69.8 °F 94% 29.84 in 5.0 mi SE 6.9 mph - N/A   Overcast
8:55 PM 71.6 °F 69.8 °F 94% 29.85 in 5.0 mi SSE 9.2 mph - N/A   Overcast
9:15 PM 71.6 °F 69.8 °F 94% 29.83 in 5.0 mi SE 10.4 mph - N/A   Overcast
9:35 PM 71.6 °F 69.8 °F 94% 29.84 in 5.0 mi SSE 9.2 mph - N/A   Overcast
9:55 PM 71.6 °F 69.8 °F 94% 29.84 in 4.0 mi SE 6.9 mph - N/A   Overcast
10:15 PM 71.6 °F 69.8 °F 94% 29.84 in 5.0 mi SSE 9.2 mph - N/A   Overcast
10:35 PM 71.6 °F 69.8 °F 94% 29.83 in 4.0 mi SSE 9.2 mph - N/A   Overcast
11:35 PM 71.6 °F 69.8 °F 94% 29.83 in 4.0 mi South 8.1 mph - N/A   Overcast
11:55 PM 71.6 °F 69.8 °F 94% 29.82 in 4.0 mi South 8.1 mph - N/A   Overcast